Wind_Speed
9 9 9 9 9 9 9 10 11 11 11 11 12 12 12 13 13 13 14 14 14 15 15 16 17 18 18 19 19 19 20 21 22 23 24 24 25 26
10 9 10 10 10 11 12 12 12 13 13 13 13 14 14 15 15 15 15 16 16 17 18 18 19 19 20 21 21 22 23 24 25 25 26 26 27 27
12 12 11 12 12 13 13 13 14 14 14 14 15 15 15 16 16 16 16 17 18 18 19 19 20 21 22 23 23 25 26 26 27 27 28 28 28 29
13 13 13 13 14 15 14 14 15 15 15 16 16 16 16 17 17 17 17 18 18 19 20 21 22 23 24 24 25 26 27 28 29 29 30 31 31 32
14 14 14 15 15 15 15 16 16 16 16 16 17 17 18 18 19 19 19 20 21 22 22 23 24 25 26 27 28 29 30 30 30 30 31 32 33 34
15 15 16 16 16 16 17 17 17 17 17 18 18 19 19 19 20 20 21 22 23 23 24 25 26 27 28 30 31 31 31 31 31 32 33 34 35 35
16 16 16 17 17 17 17 18 18 18 19 19 19 20 20 20 21 21 22 23 24 25 25 27 28 29 31 31 31 31 31 32 33 34 35 36 37 38
17 17 18 17 17 18 18 18 19 20 20 20 20 20 21 21 22 22 23 24 25 26 27 29 30 31 32 32 32 32 33 34 35 36 37 38 39 40
18 19 18 18 19 19 20 20 20 20 20 21 21 22 23 23 24 24 25 26 26 28 29 30 31 33 33 33 34 34 35 36 38 39 39 40 40 41
19 19 19 20 20 19 19 20 20 21 21 21 22 23 24 25 25 25 26 27 28 30 31 31 32 34 35 35 36 37 38 39 40 40 40 40 40 40
19 20 20 19 19 19 20 20 21 22 22 22 23 24 25 25 26 27 27 29 30 31 32 33 34 35 36 37 38 39 40 40 40 40 40 40 41 41
20 20 20 20 20 20 21 21 22 23 24 24 25 25 26 26 27 28 29 30 32 33 34 35 36 37 37 39 40 40 40 40 41 41 41 41 42 42
21 21 21 20 20 21 22 22 23 24 24 25 26 26 27 28 28 30 31 32 33 34 35 36 37 38 39 40 40 40 40 41 41 41 42 42 42 43
22 22 22 22 22 23 23 24 25 25 26 27 27 28 29 29 30 31 32 34 35 36 36 37 38 39 40 40 40 40 41 41 42 42 42 43 43 43
21 22 22 23 23 23 24 24 25 26 26 27 27 28 29 30 31 32 33 34 35 36 37 38 39 40 41 40 40 41 41 41 42 42 42 43 43 44
21 22 22 22 23 23 24 25 25 26 27 27 28 29 29 30 31 32 33 35 36 37 38 39 40 41 41 40 40 40 41 42 42 42 43 44 44 45
22 22 22 22 23 24 25 26 26 27 28 29 30 30 31 31 32 33 35 36 36 37 39 40 41 42 41 40 40 41 42 42 43 43 43 44 45 46
23 23 23 24 24 26 27 27 28 28 29 30 31 31 32 32 33 34 36 37 38 39 40 41 42 42 42 41 42 43 43 43 44 44 44 45 45 46
24 25 25 25 26 27 27 28 29 30 31 31 31 32 32 33 34 35 37 38 39 40 41 42 42 43 43 43 43 43 44 44 44 45 45 45 45 45
25 26 26 26 27 28 29 30 30 31 32 32 33 33 33 34 36 37 38 39 40 41 42 43 43 44 44 44 43 43 44 45 45 45 45 45 45 44
26 27 27 28 29 29 30 31 32 33 33 33 34 34 35 36 37 38 39 40 41 42 43 43 44 44 45 44 44 44 44 46 46 46 45 45 44 44
28 28 28 29 30 31 32 32 33 33 34 34 34 35 36 37 38 39 40 41 42 43 44 44 45 45 45 44 44 44 44 45 46 47 46 45 45 44
29 30 30 31 32 32 33 33 34 34 35 35 35 36 38 39 40 41 42 43 43 44 45 45 45 45 45 45 45 45 45 45 45 46 46 46 45 45
Wind_Direction
280 283 286 286 287 284 286 288 290 293 296 295 295 296 297 299 300 300 300 300 299 299 300 300 301 301 301 302 302 298 296 296 295 294 292 291 289 287
276 283 284 284 288 292 292 290 291 292 292 293 293 293 294 296 297 297 298 298 299 299 299 300 300 301 302 302 302 300 297 295 294 292 292 290 288 287
276 279 284 285 287 289 288 288 289 291 291 289 290 292 293 295 296 296 296 297 299 300 300 300 301 301 301 301 300 300 298 296 293 291 291 292 291 290
277 279 281 285 288 289 287 288 289 290 291 289 289 291 294 294 295 295 295 298 299 300 300 300 301 301 301 301 301 300 299 298 297 295 294 293 293 292
276 278 281 284 287 287 287 289 289 290 290 289 290 293 293 294 295 295 295 297 299 300 301 301 303 303 302 302 302 302 301 299 299 297 296 294 293 292
276 279 283 285 285 286 287 288 288 288 290 291 291 292 292 293 295 295 295 297 300 301 303 303 304 303 304 304 303 302 301 300 300 300 299 298 295 294
277 279 283 284 285 286 288 288 288 288 289 290 292 292 293 293 294 295 295 297 299 301 303 303 304 305 305 305 304 303 302 301 301 301 300 299 298 296
276 279 283 285 287 289 289 289 288 289 287 288 290 291 293 293 293 293 295 297 299 300 302 303 304 304 304 304 304 303 303 302 302 301 300 299 298 298
279 280 282 284 286 289 290 290 289 288 287 287 290 291 291 292 293 293 295 296 298 300 302 303 303 304 304 304 304 304 303 303 302 302 301 300 299 298
279 281 283 284 285 287 289 291 291 290 290 289 290 291 292 292 294 294 295 297 298 300 302 303 304 304 304 304 304 304 304 303 302 301 300 300 300 300
280 281 283 284 284 287 289 291 291 289 289 290 292 293 294 294 294 294 295 297 299 301 302 303 304 305 305 305 305 304 304 303 303 302 301 300 300 300
281 284 283 283 285 288 289 290 291 292 291 291 293 294 294 295 295 296 297 297 298 300 301 303 305 305 305 305 305 305 304 304 304 303 302 301 300 300
281 283 284 284 286 287 289 291 292 292 293 293 293 295 296 297 296 296 297 298 300 301 302 303 304 305 305 306 305 304 305 304 304 304 303 303 302 302
279 282 283 284 286 287 289 290 291 292 294 295 295 296 297 298 298 298 299 300 302 302 303 303 305 306 307 306 305 305 305 305 304 304 303 303 303 303
279 280 281 283 286 288 290 291 292 293 296 297 297 297 298 300 299 300 300 302 303 304 304 304 305 307 308 307 305 305 305 305 305 304 303 303 303 303
278 281 283 284 286 288 290 292 294 295 297 298 298 299 299 301 302 302 302 303 305 306 307 307 308 309 309 308 307 306 306 306 305 304 304 304 303 303
279 282 285 287 289 290 291 293 294 295 297 298 299 299 300 301 302 304 305 305 306 307 307 307 308 309 309 308 308 307 305 306 306 305 304 304 303 303
279 282 285 287 290 291 291 292 293 295 297 298 298 299 299 300 301 303 304 305 306 307 307 307 307 307 308 307 307 307 306 306 306 305 304 304 303 303
279 282 284 287 290 291 292 292 294 295 296 297 298 299 299 301 302 304 304 305 307 308 308 308 308 308 307 307 307 307 307 307 306 306 305 305 305 304
280 281 283 286 290 291 292 292 294 295 296 297 299 299 300 301 302 304 305 305 306 307 308 309 308 307 307 307 307 308 308 307 307 306 305 305 305 305
279 282 284 286 289 291 292 293 294 295 296 296 298 299 300 301 302 304 305 305 305 306 307 309 308 307 307 307 308 308 308 308 308 307 306 305 305 306
280 282 284 286 288 289 291 293 294 295 295 296 297 298 300 301 302 303 304 305 306 307 308 308 308 308 307 307 308 308 308 308 309 309 308 307 306 307
281 282 283 285 287 289 290 291 293 294 295 295 296 298 299 300 302 303 304 305 306 306 307 307 308 308 308 308 308 309 309 308 309 309 309 309 308 309
Height
5850 5850 5849 5849 5848 5847 5847 5846 5846 5844 5843 5841 5840 5839 5838 5836 5835 5833 5832 5830 5829 5827 5825 5824 5822 5819 5817 5815 5813 5811 5809 5807 5805 5803 5801 5799 5797 5796
5847 5847 5846 5846 5845 5845 5844 5843 5842 5841 5840 5838 5837 5836 5834 5833 5831 5830 5828 5826 5825 5823 5821 5819 5817 5815 5813 5810 5808 5806 5803 5801 5799 5797 5794 5792 5791 5789
5844 5844 5844 5843 5842 5842 5841 5840 5839 5838 5836 5835 5833 5832 5831 5829 5827 5826 5824 5822 5820 5818 5816 5814 5812 5810 5808 5805 5803 5800 5797 5794 5791 5789 5787 5785 5783 5781
5841 5841 5840 5840 5839 5838 5837 5836 5835 5834 5833 5831 5830 5828 5826 5825 5823 5821 5819 5818 5815 5813 5811 5809 5806 5804 5802 5799 5796 5793 5790 5787 5784 5781 5778 5776 5774 5771
5838 5837 5836 5836 5835 5834 5833 5832 5831 5830 5828 5827 5825 5824 5822 5820 5818 5816 5814 5813 5810 5808 5805 5803 5800 5798 5795 5792 5789 5785 5782 5779 5776 5773 5769 5767 5764 5761
5834 5833 5832 5831 5831 5830 5828 5827 5826 5825 5824 5822 5821 5819 5817 5815 5813 5811 5809 5807 5805 5802 5800 5797 5794 5791 5788 5785 5781 5778 5774 5771 5767 5764 5761 5757 5754 5751
5829 5828 5828 5827 5826 5825 5824 5822 5821 5820 5818 5817 5815 5814 5812 5810 5808 5806 5804 5801 5799 5796 5794 5791 5787 5784 5781 5777 5773 5769 5766 5762 5759 5755 5751 5748 5744 5741
5824 5824 5823 5822 5821 5820 5819 5817 5816 5814 5813 5811 5810 5808 5806 5804 5802 5800 5798 5796 5793 5791 5787 5784 5780 5777 5773 5769 5765 5761 5758 5754 5750 5746 5742 5738 5734 5730
5819 5819 5818 5817 5816 5815 5813 5812 5810 5808 5807 5806 5804 5803 5801 5798 5796 5794 5792 5789 5787 5784 5781 5777 5773 5769 5764 5760 5756 5753 5749 5744 5740 5736 5731 5727 5722 5718
5814 5814 5813 5812 5810 5809 5808 5806 5804 5803 5801 5800 5798 5796 5794 5792 5790 5788 5785 5782 5779 5776 5773 5769 5765 5760 5756 5752 5747 5743 5739 5734 5730 5725 5720 5716 5712 5707
5808 5808 5807 5806 5805 5804 5802 5801 5799 5797 5795 5793 5792 5789 5787 5785 5782 5780 5778 5775 5772 5769 5765 5761 5757 5752 5747 5742 5738 5733 5728 5723 5719 5714 5709 5705 5701 5696
5803 5802 5801 5800 5799 5798 5797 5795 5793 5792 5789 5787 5785 5783 5780 5777 5775 5773 5770 5767 5764 5761 5757 5752 5748 5743 5739 5733 5728 5723 5718 5713 5708 5703 5698 5694 5689 5685
5797 5796 5795 5794 5793 5792 5790 5789 5787 5785 5783 5781 5778 5776 5773 5770 5767 5765 5762 5759 5755 5752 5748 5743 5739 5733 5728 5724 5718 5713 5707 5702 5697 5692 5687 5682 5677 5672
5791 5790 5789 5788 5787 5785 5784 5782 5780 5778 5776 5774 5771 5768 5766 5763 5760 5756 5753 5750 5746 5742 5738 5733 5729 5724 5719 5713 5708 5703 5697 5692 5687 5681 5676 5671 5666 5660
5785 5784 5783 5781 5780 5779 5777 5775 5773 5771 5769 5766 5764 5761 5758 5755 5752 5748 5745 5741 5737 5733 5728 5723 5719 5714 5708 5703 5698 5692 5687 5681 5676 5670 5665 5659 5654 5649
5778 5777 5776 5775 5773 5772 5770 5768 5766 5764 5762 5759 5756 5753 5750 5747 5744 5740 5736 5732 5728 5723 5718 5713 5708 5703 5698 5692 5687 5681 5676 5671 5665 5659 5654 5648 5642 5637
5772 5771 5770 5768 5767 5765 5763 5761 5759 5757 5754 5752 5749 5746 5742 5739 5736 5732 5728 5723 5719 5715 5709 5703 5698 5692 5687 5682 5676 5671 5665 5660 5654 5648 5643 5637 5631 5625
5765 5764 5763 5761 5760 5758 5756 5754 5752 5749 5746 5743 5740 5737 5734 5730 5727 5723 5719 5714 5710 5705 5700 5694 5688 5682 5677 5671 5666 5660 5654 5649 5643 5637 5631 5625 5619 5613
5758 5757 5756 5754 5752 5750 5748 5746 5744 5741 5738 5735 5732 5728 5725 5721 5718 5714 5709 5705 5700 5695 5689 5684 5678 5672 5667 5661 5655 5649 5643 5637 5631 5625 5619 5613 5607 5601
5750 5749 5748 5747 5745 5742 5740 5738 5735 5732 5729 5726 5723 5719 5716 5712 5709 5704 5700 5695 5690 5685 5679 5673 5667 5661 5655 5650 5645 5638 5631 5625 5619 5614 5608 5601 5595 5589
5742 5741 5740 5738 5736 5734 5731 5729 5726 5723 5720 5717 5713 5710 5706 5703 5699 5694 5690 5685 5680 5674 5669 5663 5656 5650 5643 5638 5633 5627 5620 5612 5606 5601 5595 5590 5584 5578
5733 5732 5731 5729 5727 5725 5722 5720 5717 5714 5711 5707 5704 5700 5697 5693 5689 5684 5679 5674 5669 5663 5657 5651 5645 5638 5632 5627 5621 5615 5609 5602 5594 5588 5582 5577 5571 5566
5724 5723 5721 5720 5717 5715 5712 5710 5707 5704 5701 5697 5694 5690 5686 5682 5678 5673 5668 5663 5658 5652 5646 5640 5634 5627 5621 5615 5609 5603 5597 5590 5584 5577 5571 5564 5558 5553